#timestamp,LO_Frequency,Hit,StdDev 
1508076015.2,286047004.3,N
1508076035.1,286047008.5,N
1508076036.0,286047008.5,N
1508076055.8,286047010.8,N
1508076075.6,286047008.0,N
1508076095.5,286047008.5,N
1508076115.3,286047011.2,N
1508076135.1,286047009.3,N
1508076155.9,286047007.2,N
1508076175.7,286047008.7,N
1508076195.5,286047007.5,N
1508076215.3,286047003.0,N
1508076235.2,286047001.9,N
1508076255.0,286047002.3,N
1508076255.9,286047002.3,N
1508076275.7,286047003.7,N
1508076295.6,286047008.9,N
1508076315.4,286047010.6,N
1508076335.2,286047008.7,N
1508076355.1,286047008.6,N
1508076356.0,286047008.6,N
1508076375.8,286047003.0,N
1508076395.6,286047005.4,N
1508076415.5,286047003.4,N
1508076435.3,286047004.4,N
1508076455.1,286046999.7,N
1508076475.9,286047000.7,N
1508076495.7,286047000.5,N
1508076515.5,286047005.7,N
1508076535.4,286047008.2,N
1508076555.2,286047012.1,Y
1508076575.0,286047005.1,P
1508076575.9,286047005.1,P
1508076595.8,286047002.9,P
1508076615.6,286047010.4,Y
1508076635.4,286047009.2,P
1508076655.3,286047007.2,P
1508076675.1,286047007.2,P
1508076676.0,286047007.2,Y
1508076695.8,286046998.1,P
1508076715.7,286046998.4,N
1508076735.5,286046995.8,N
1508076755.3,286046997.5,N
1508076775.2,286046991.7,N
1508076795.9,286046988.2,N
1508076815.7,286046988.0,N
1508076835.6,286046983.6,N
1508076855.4,286046982.0,N
1508076875.2,286046979.9,N
1508076895.1,286046983.2,N
1508076896.0,286046983.2,N
1508076915.8,286046985.4,N
1508076935.6,286046982.6,N
1508076955.4,286046980.8,N
1508076975.3,286046988.1,N
1508076995.1,286046990.0,N
1508077015.8,286046990.2,N
1508077035.7,286046994.1,N
1508077055.5,286046994.3,N
1508077075.3,286046992.4,N
1508077095.2,286046984.2,N
1508077115.9,286046980.5,N
1508077135.7,286046977.8,Y
1508077155.6,286046991.5,P
1508077175.4,286046990.9,P
1508077195.2,286046991.3,P
1508077215.1,286046991.6,Y
1508077216.0,286046991.6,P
1508077235.8,286046997.0,P
1508077255.6,286046999.6,N
1508077275.5,286046996.9,N
1508077295.3,286046999.0,N
1508077315.1,286046995.3,N
1508077335.9,286046990.5,N
1508077355.7,286046987.1,Y
1508077375.5,286046988.7,P
1508077395.4,286046987.7,P
1508077415.2,286046986.9,P
1508077435.0,286046990.9,N
1508077435.9,286046990.9,Y
1508077455.8,286047000.1,P
1508077475.6,286047005.3,N
1508077495.4,286047010.8,N
1508077515.3,286047012.6,N
1508077535.1,286047014.1,N
1508077536.0,286047014.1,N
1508077555.8,286047017.1,N
1508077575.7,286047014.4,N
1508077595.5,286047018.5,N
1508077615.3,286047019.9,N
1508077635.2,286047023.2,N
1508077655.9,286047023.6,N
1508077675.7,286047019.1,N
1508077695.6,286047015.2,N
1508077715.4,286047014.6,N
1508077735.2,286047016.5,N
1508077755.0,286047014.5,N
1508077755.9,286047014.5,N
1508077775.8,286047012.6,N
1508077795.6,286047013.0,N
1508077815.4,286047013.0,N
1508077835.3,286047014.7,N
1508077855.1,286047013.1,N
1508077875.8,286047013.9,N
1508077895.7,286047010.9,N
1508077915.5,286047016.5,N
1508077935.3,286047023.3,Y
1508077955.2,286047008.6,P
1508077975.9,286047008.5,P
1508077995.7,286047008.8,P
1508078015.6,286047006.3,N
1508078035.4,286047009.9,Y
1508078055.2,286047003.0,P
1508078075.1,286047007.1,N
1508078076.0,286047007.1,N
1508078095.8,286047003.3,N
1508078115.6,286047003.4,N
1508078135.5,286047004.8,N
1508078155.3,286047002.0,N
1508078175.1,286046996.6,N
1508078195.8,286046991.8,N
1508078215.7,286046990.6,N
1508078235.5,286046991.6,N
1508078255.3,286046989.4,N
1508078275.2,286046991.3,N
1508078295.9,286046993.2,N
1508078315.7,286046990.2,N
1508078335.6,286046990.7,N
1508078355.4,286046988.9,N
1508078375.2,286046988.4,N
1508078395.1,286046983.9,N
1508078396.0,286046983.9,N
1508078415.8,286046980.5,N
1508078435.6,286046982.3,N
1508078455.5,286046983.1,N
1508078475.3,286046983.5,N
1508078495.1,286046983.8,N
1508078515.8,286046989.3,N
1508078535.7,286046988.8,N
1508078555.5,286046988.5,N
1508078575.3,286046992.6,N
1508078595.2,286046997.3,N
1508078615.9,286046999.3,N
1508078635.7,286046998.9,N
1508078655.6,286046995.5,N
1508078675.4,286046996.0,N
1508078695.2,286046995.8,N
1508078715.1,286046993.4,N
1508078716.0,286046993.4,N
1508078735.8,286046995.6,N
1508078755.6,286046997.6,N
1508078775.5,286046998.0,N
1508078795.3,286046991.7,N
1508078815.1,286046992.7,N
1508078835.8,286046987.7,N
1508078855.7,286046991.6,N
1508078875.5,286046989.9,N
1508078895.3,286046985.5,N
1508078915.2,286046982.5,Y
1508078935.0,286046997.8,P
1508078935.9,286046997.8,N
1508078955.8,286047003.4,N
1508078975.6,286047000.6,N
1508078995.4,286046996.9,N
1508079015.2,286046995.7,N
1508079035.1,286047000.8,N
1508079036.0,286047000.8,N
1508079055.8,286047005.2,N
1508079075.6,286047004.2,N
1508079095.5,286046999.9,N
1508079115.3,286046998.1,N
1508079135.1,286047001.1,N
1508079155.9,286046998.8,N
1508079175.7,286046998.3,N
1508079195.5,286046999.9,N
1508079215.4,286047002.8,N
1508079235.2,286047003.8,N
1508079255.0,286047002.1,N
1508079255.9,286047002.1,N
1508079275.8,286047000.4,N
1508079295.6,286046998.6,N
1508079315.4,286046996.5,N
1508079335.2,286046997.8,N
1508079355.1,286047000.4,N
1508079356.0,286047000.4,N
1508079375.8,286046999.8,N
1508079395.6,286047001.9,N
1508079415.5,286047002.8,N
1508079435.3,286047005.5,N
1508079455.1,286047006.9,N
1508079475.9,286047010.7,Y
1508079495.7,286047011.2,P
1508079515.5,286047010.9,N
1508079535.4,286047013.5,N
1508079555.2,286047015.1,Y
1508079575.0,286047006.4,P
1508079575.9,286047006.4,P
1508079595.8,286047006.3,P
